Flag for USA

Past Weather in 39°49'13"N, 104°59'13"W, USA — Yesterday and Last 2 Weeks

Now
68 °F

Partly cloudy.


Feels Like: 68 °F
Forecast: 89 / 64 °F
Wind: 5 mph from Northeast

Location: Buckley Air Force Base

Current Time: Aug 5, 2020 at 12:38:34 am

Latest Report: Aug 4, 2020 at 11:58 pm


Visibility: 10 mi

Pressure: 29.98 "Hg

Humidity: 58%

Dew Point: 53 °F

Location of 39°49'13"N, 104°59'13"WLocation

Past Weather in 39°49'13"N, 104°59'13"W — Graph

°F

39°49'13"N, 104°59'13"W Temperature Yesterday

Maximum temperature yesterday: 90 °F (at 4:58 pm)
Minimum temperature yesterday: 63 °F (at 3:58 am)
Average temperature yesterday: 75 °F

High & Low Weather Summary for the Past Weeks

 TemperatureHumidityPressure
High94 °F (Jul 22, 1:58 pm)100% (Jul 27, 4:58 am)30.20 "Hg (Jul 27, 4:58 am)
Low55 °F (Jul 30, 3:58 am)15% (Jul 22, 1:58 pm)29.76 "Hg (Jul 23, 4:58 pm)
Average72 °F54%29.96 "Hg
* Reported Jul 20 10:58 pm — Aug 4 10:58 pm, 39°49'13"N, 104°59'13"W. Weather by CustomWeather, © 2020

Note: Actual official high and low records may vary slightly from our data, if they occured in-between our weather recording intervals... More about our weather records

39°49'13"N, 104°59'13"W Weather History for the Previous 24 Hours

Scroll right to see more
 ConditionsComfort  
Time TempWeatherWind HumidityBarometerVisibility
10:58 pm
Tue, Aug 4
69 °FPartly cloudy.6 mph58%29.96 "Hg10 mi
9:58 pm69 °FPartly cloudy.9 mph57%29.97 "Hg10 mi
8:58 pm69 °FPartly cloudy.18 mph54%29.95 "Hg10 mi
7:58 pm73 °FThundershowers. Broken clouds.14 mph38%29.93 "Hg10 mi
7:24 pm75 °FThunderstorms. Broken clouds.18 mph41%29.91 "Hg10 mi
6:58 pm78 °FThundershowers. Broken clouds.23 mph44%29.89 "Hg10 mi
4:58 pm90 °FBroken clouds.16 mph22%29.83 "Hg10 mi
3:58 pm89 °FBroken clouds.13 mph26%29.83 "Hg10 mi
2:58 pm89 °FBroken clouds.13 mph26%29.83 "Hg10 mi
1:58 pm90 °FScattered clouds.12 mph28%29.84 "Hg10 mi
12:58 pm86 °FScattered clouds.9 mph31%29.86 "Hg10 mi
11:58 am82 °FScattered clouds.13 mph37%29.88 "Hg10 mi
10:58 am79 °FScattered clouds.5 mph39%29.89 "Hg10 mi
9:58 am75 °FScattered clouds.No wind44%29.88 "Hg10 mi
8:58 am72 °FScattered clouds.6 mph48%29.89 "Hg10 mi
7:58 am68 °FBroken clouds.6 mph60%29.90 "Hg10 mi
6:58 am64 °FScattered clouds.6 mph63%29.87 "Hg10 mi
5:58 am64 °FPartly cloudy.6 mph61%29.88 "Hg10 mi
4:58 am64 °FPartly cloudy.9 mph62%29.91 "Hg10 mi
3:58 am63 °FPassing clouds.7 mph63%29.89 "Hg10 mi
2:58 am68 °FPartly cloudy.8 mph53%29.89 "Hg10 mi
1:58 am68 °FPassing clouds.13 mph56%29.90 "Hg10 mi
12:58 am69 °FPassing clouds.14 mph50%29.91 "Hg10 mi
Weather by CustomWeather, © 2020

See weather overview